Weather History for Ocala, FL

Change the Weather History Date:

Friday, September 20, 2013

  Actual Average Record
Temperature  
Mean Temperature 78 °F -  
Max Temperature 89 °F 85 °F 93 °F (1997)
Min Temperature 66 °F 68 °F 62 °F (2010)
Cooling Degree Days 12    
Growing Degree Days 28 (Base 50)    
Moisture  
Dew Point 64 °F    
Average Humidity 70    
Maximum Humidity 88    
Minimum Humidity 40    
Precipitation  
Precipitation 0.00 in - - ()
Sea Level Pressure  
Sea Level Pressure 30.01 in    
Wind  
Wind Speed 2 mph (ENE)    
Max Wind Speed 8 mph    
Max Gust Speed -    
Visibility 10 miles    
Events      
Averages and records for this station are not official NWS values.
T = Trace of Precipitation, MM = Missing Value Source: NWS Daily Summary

Daily Weather History Graph

Daily Weather History Graph

Search for Another Location

Airport:

Trip Planner

Search our weather history database for the weather conditions in past years. The results will help you decide how hot, cold, wet, or windy it might be!

Date:

Astronomy

Sep. 20, 2013 Rise Set
Actual Time 7:16 AM EDT 7:27 PM EDT
Civil Twilight 6:52 AM EDT 7:51 PM EDT
Nautical Twilight 6:25 AM EDT 8:18 PM EDT
Astronomical Twilight 5:57 AM EDT 8:46 PM EDT
Moon 8:11 PM EDT (9/20) 8:20 AM EDT (9/20)
Length of Visible Light 12h 58m
Length of Day
12h 11m
Full, 98% of the Moon is Illuminated
Sep 20
Full
Sep 26
Last Quarter
Oct 4
New
Oct 11
First Quarter
Oct 18
Full

Hourly Weather History & Observations

Time (EDT) Temp. Heat Index Dew Point Humidity Pressure Visibility Wind Dir Wind Speed Gust Speed Precip Events Conditions
12:15 AM 71.6 °F - 64.4 °F 78% 30.06 in 10.0 mi Calm Calm - N/A   Clear
12:35 AM 71.6 °F - 64.4 °F 78% 30.06 in 10.0 mi Calm Calm - N/A   Clear
12:55 AM 71.6 °F - 64.4 °F 78% 30.06 in 10.0 mi Calm Calm - N/A   Clear
1:15 AM 71.6 °F - 64.4 °F 78% 30.06 in 10.0 mi Calm Calm - N/A   Clear
1:35 AM 69.8 °F - 64.4 °F 83% 30.06 in 10.0 mi Calm Calm - N/A   Clear
1:55 AM 71.6 °F - 64.4 °F 78% 30.05 in 10.0 mi Calm Calm - N/A   Clear
2:15 AM 71.6 °F - 64.4 °F 78% 30.06 in 10.0 mi NNE 3.5 mph - N/A   Clear
2:35 AM 69.8 °F - 64.4 °F 83% 30.05 in 10.0 mi NE 3.5 mph - N/A   Clear
2:55 AM 69.8 °F - 64.4 °F 83% 30.05 in 10.0 mi Calm Calm - N/A   Clear
3:15 AM 69.8 °F - 62.6 °F 78% 30.05 in 10.0 mi Calm Calm - N/A   Clear
3:35 AM 69.8 °F - 62.6 °F 78% 30.04 in 10.0 mi Calm Calm - N/A   Clear
3:55 AM 68.0 °F - 62.6 °F 83% 30.03 in 10.0 mi Calm Calm - N/A   Clear
4:15 AM 68.0 °F - 62.6 °F 83% 30.03 in 10.0 mi Calm Calm - N/A   Clear
4:35 AM 68.0 °F - 62.6 °F 83% 30.03 in 10.0 mi Calm Calm - N/A   Clear
4:55 AM 66.2 °F - 62.6 °F 88% 30.03 in 10.0 mi Calm Calm - N/A   Clear
5:15 AM 66.2 °F - 62.6 °F 88% 30.04 in 10.0 mi NNE 3.5 mph - N/A   Clear
5:35 AM 66.2 °F - 60.8 °F 83% 30.03 in 10.0 mi NNE 3.5 mph - N/A   Clear
5:55 AM 66.2 °F - 60.8 °F 83% 30.04 in 10.0 mi Calm Calm - N/A   Clear
6:15 AM 66.2 °F - 60.8 °F 83% 30.04 in 10.0 mi NNE 3.5 mph - N/A   Clear
6:35 AM 66.2 °F - 60.8 °F 83% 30.04 in 10.0 mi Calm Calm - N/A   Clear
6:50 AM 66.2 °F - 60.8 °F 83% 30.04 in 10.0 mi NNE 3.5 mph - N/A   Clear
7:50 AM 68.0 °F - 62.6 °F 83% 30.06 in 10.0 mi NNE 3.5 mph - N/A   Clear
8:50 AM 73.4 °F - 64.4 °F 73% 30.06 in 10.0 mi NNE 3.5 mph - N/A   Clear
9:50 AM 78.8 °F - 66.2 °F 65% 30.06 in 10.0 mi East 5.8 mph - N/A   Clear
10:50 AM 82.4 °F 84.6 °F 66.2 °F 58% 30.05 in 10.0 mi East 5.8 mph - N/A   Clear
11:50 AM 84.2 °F 85.0 °F 62.6 °F 48% 30.04 in 10.0 mi ESE 5.8 mph - N/A   Partly Cloudy
12:50 PM 87.8 °F 89.4 °F 64.4 °F 46% 30.03 in 10.0 mi East 8.1 mph - N/A   Scattered Clouds
1:50 PM 87.8 °F 88.5 °F 62.6 °F 43% 30.01 in 10.0 mi East 5.8 mph - N/A   Mostly Cloudy
2:55 PM 87.8 °F 89.4 °F 64.4 °F 46% 29.97 in 10.0 mi East 5.8 mph - N/A   Scattered Clouds
3:50 PM 89.6 °F 90.1 °F 62.6 °F 40% 29.94 in 10.0 mi East 5.8 mph - N/A   Scattered Clouds
4:50 PM 87.8 °F 88.5 °F 62.6 °F 43% 29.93 in 10.0 mi Calm Calm - N/A   Scattered Clouds
5:50 PM 86.0 °F 87.3 °F 64.4 °F 48% 29.93 in 10.0 mi East 5.8 mph - N/A   Scattered Clouds
6:50 PM 84.2 °F 85.6 °F 64.4 °F 51% 29.93 in 10.0 mi ESE 4.6 mph - N/A   Scattered Clouds
7:55 PM 80.6 °F 82.3 °F 64.4 °F 58% 29.93 in 10.0 mi ENE 4.6 mph - N/A   Partly Cloudy
8:15 PM 80.6 °F 82.3 °F 64.4 °F 58% 29.94 in 10.0 mi East 3.5 mph - N/A   Clear
8:35 PM 78.8 °F - 64.4 °F 61% 29.94 in 10.0 mi East 3.5 mph - N/A   Clear
8:55 PM 78.8 °F - 64.4 °F 61% 29.95 in 10.0 mi East 4.6 mph - N/A   Clear
9:15 PM 78.8 °F - 64.4 °F 61% 29.95 in 10.0 mi East 3.5 mph - N/A   Clear
9:35 PM 77.0 °F - 64.4 °F 65% 29.96 in 10.0 mi Calm Calm - N/A   Clear
9:55 PM 77.0 °F - 64.4 °F 65% 29.96 in 10.0 mi East 4.6 mph - N/A   Clear
10:15 PM 75.2 °F - 64.4 °F 69% 29.97 in 10.0 mi East 3.5 mph - N/A   Clear
10:35 PM 75.2 °F - 64.4 °F 69% 29.97 in 10.0 mi East 3.5 mph - N/A   Mostly Cloudy
10:55 PM 75.2 °F - 64.4 °F 69% 29.97 in 10.0 mi ESE 3.5 mph - N/A   Mostly Cloudy
11:15 PM 75.2 °F - 64.4 °F 69% 29.97 in 10.0 mi Calm Calm - N/A   Scattered Clouds
11:35 PM 75.2 °F - 64.4 °F 69% 29.97 in 10.0 mi Calm Calm - N/A   Mostly Cloudy
11:55 PM 75.2 °F - 64.4 °F 69% 29.97 in 10.0 mi Calm Calm - N/A   Overcast